Location: Observatoire de l'Aigle
(47.0607°N, 71.3152°W)
Time: 13:59:08
(UTC-04:00)

Amateur Radio Satellites - All Passes

Search period start: 30 August 2015 13:29
Search period end: 31 August 2015 13:29
Location: Observatoire de l'Aigle, 47.0607°N, 71.3152°W

Satellite Date Start Highest point End Downlink Frequencies (MHz)
Time Altitude Azimuth
VELOX 1 30 Aug 13:30:35 13:33:35 17° 299° (WNW) 13:36:26 145.980
50 SAT 30 Aug 13:31:34 13:32:34 11° 300° (WNW) 13:33:23 437.505
CUSAT 1 30 Aug 13:47:43 13:49:53 11° 282° (WNW) 13:51:29 437.405
ITUPSAT 1 30 Aug 13:48:13 13:51:50 22° 92° (E) 13:55:34 437.325
Gurwin Techsat 1B 30 Aug 13:50:12 13:55:24 60° 72° (ENE) 14:00:40 435.225
GONETS M04 30 Aug 13:55:18 14:04:04 67° 76° (ENE) 14:12:52
Cosmos 2499 30 Aug 14:00:17 14:06:57 24° 57° (ENE) 14:13:36 435.465 / 435.565
DANDE 30 Aug 14:02:27 14:05:16 12° 280° (W) 14:07:38 436.750
ISS 30 Aug 14:07:32 14:10:42 46° 15° (NNE) 14:13:52 145.825
JAS-2 30 Aug 14:08:11 14:15:35 53° 67° (ENE) 14:23:09 435.910
ITAMSAT 1 30 Aug 14:17:50 14:23:01 86° 75° (ENE) 14:28:15 435.822/435.867
TISAT 1 30 Aug 14:19:50 14:23:43 34° 292° (WNW) 14:27:34 437.305
BEESAT 30 Aug 14:21:56 14:26:30 45° 99° (E) 14:31:04 436.000
AO-7 30 Aug 14:27:12 14:34:46 41° 58° (ENE) 14:42:26 29.400- 29.500
HORYU 2 30 Aug 14:36:08 14:39:16 19° 62° (ENE) 14:42:32 437.375
RS-15 30 Aug 14:43:55 14:49:55 18° 98° (E) 14:56:46 29.354- 29.394
SPROUT 30 Aug 14:46:29 14:48:40 13° 300° (WNW) 14:50:42 437.525
SWISSCUBE 30 Aug 14:47:32 14:52:19 85° 101° (ESE) 14:57:05 437.505
Oscar 19 30 Aug 15:06:16 15:08:09 11° 276° (W) 15:09:43 437.125/150
BEESAT 3 30 Aug 15:14:34 15:18:11 32° 118° (ESE) 15:21:52 437.485
BEESAT 2 30 Aug 15:24:16 15:27:51 31° 118° (ESE) 15:31:32 435.950
ITUPSAT 1 30 Aug 15:25:26 15:30:02 48° 290° (WNW) 15:34:35 437.325
Gurwin Techsat 1B 30 Aug 15:31:52 15:35:52 21° 270° (W) 15:39:45 435.225
ISS 30 Aug 15:44:00 15:47:08 44° 214° (SSW) 15:50:14 145.825
STARS 30 Aug 15:44:25 15:48:27 33° 96° (E) 15:52:29 437.465
AIST 2 30 Aug 15:51:25 15:53:29 14° 111° (ESE) 15:55:44 435.215
Cosmos 2499 30 Aug 15:52:43 16:01:34 89° 262° (W) 16:09:50 435.465 / 435.565
GONETS M04 30 Aug 15:52:55 16:00:22 31° 277° (W) 16:07:37
JAS-2 30 Aug 15:53:35 16:00:47 41° 267° (W) 16:08:05 435.910
KKS-1 30 Aug 15:58:46 16:03:18 75° 103° (ESE) 16:07:47 437.445
BEESAT 30 Aug 16:00:15 16:04:07 25° 296° (WNW) 16:07:54 436.000
ITAMSAT 1 30 Aug 16:00:40 16:03:20 14° 274° (W) 16:05:44 435.822/435.867
MOZHAYETS 4 30 Aug 16:01:11 16:03:26 14° 87° (E) 16:05:53
HORYU 2 30 Aug 16:11:08 16:15:33 55° 260° (W) 16:20:01 437.375
AO-7 30 Aug 16:19:14 16:27:25 56° 258° (WSW) 16:35:35 29.400- 29.500
SWISSCUBE 30 Aug 16:26:58 16:29:35 14° 302° (WNW) 16:32:01 437.505
CUTE-I 30 Aug 16:32:37 16:35:41 16° 57° (ENE) 16:38:57 437.470
RS-15 30 Aug 16:49:30 17:00:18 71° 120° (ESE) 17:11:38 29.354- 29.394
BEESAT 3 30 Aug 16:52:20 16:56:05 33° 317° (NW) 16:59:50 437.485
BEESAT 2 30 Aug 17:02:03 17:05:51 35° 317° (NW) 17:09:40 435.950
STARS 30 Aug 17:20:57 17:24:49 29° 294° (WNW) 17:28:38 437.465
Cubesat XI-IV 30 Aug 17:24:50 17:29:45 40° 67° (ENE) 17:34:44 437.490
AIST 2 30 Aug 17:27:17 17:31:32 77° 307° (NW) 17:35:49 435.215
MOZHAYETS 4 30 Aug 17:36:41 17:41:15 71° 286° (WNW) 17:45:47
KKS-1 30 Aug 17:36:48 17:39:24 15° 300° (WNW) 17:41:51 437.445
Cosmos 2499 30 Aug 17:47:23 17:53:35 21° 283° (WNW) 17:59:13 435.465 / 435.565
CUBESAT XI-V 30 Aug 17:50:10 17:53:08 17° 89° (E) 17:56:16 437.345
BRITE-PL 30 Aug 17:50:30 17:51:50 11° 56° (NE) 17:53:23 437.365/2234.400
Cosmos 2491 30 Aug 18:09:48 18:14:43 16° 50° (NE) 18:20:03 435.465 / 435.565
CUTE-I 30 Aug 18:09:48 18:15:07 88° 247° (WSW) 18:20:30 437.470
AO-7 30 Aug 18:20:57 18:22:28 10° 281° (WNW) 18:23:13 29.400- 29.500
GOMX 1 30 Aug 18:25:29 18:28:05 15° 58° (ENE) 18:30:58 467.674
STRAND 1 30 Aug 18:42:12 18:45:13 16° 88° (E) 18:48:27 437.568
BEESAT 2 30 Aug 18:44:58 18:45:05 10° 339° (NNW) 18:45:07 435.950
DOVE 4 30 Aug 18:46:03 18:48:44 16° 59° (ENE) 18:51:41 437.250
CANX-2 30 Aug 18:47:52 18:48:49 11° 59° (ENE) 18:49:58 2200.000
PRISM 30 Aug 18:55:26 18:56:58 12° 88° (E) 18:58:43 437.425
AIST 1 30 Aug 18:59:16 19:03:24 43° 75° (ENE) 19:07:34
RS-15 30 Aug 19:02:53 19:13:32 48° 328° (NNW) 19:24:38 29.354- 29.394
Cubesat XI-IV 30 Aug 19:05:14 19:09:58 31° 265° (W) 19:14:40 437.490
HO-68 30 Aug 19:07:50 19:14:08 35° 59° (ENE) 19:20:32 435.675
AIST 2 30 Aug 19:08:02 19:10:48 16° 329° (NNW) 19:13:31 435.215
O/OREOS (USA 219) 30 Aug 19:10:47 19:15:01 41° 108° (ESE) 19:19:21 437.305
SEEDS 30 Aug 19:10:49 19:12:46 13° 61° (ENE) 19:14:54 437.485
MOZHAYETS 4 30 Aug 19:17:07 19:17:42 10° 303° (WNW) 19:18:04
BRITE-PL 30 Aug 19:25:09 19:29:31 80° 75° (ENE) 19:34:16 437.365/2234.400
CUBESAT XI-V 30 Aug 19:26:26 19:31:01 59° 287° (WNW) 19:35:35 437.345
COMPASS 1 30 Aug 19:34:11 19:36:56 18° 64° (ENE) 19:39:49 437.405
CINEMA 3 30 Aug 19:40:47 19:44:25 23° 63° (ENE) 19:48:17 145.822/145.860
CUBEBUG 2 30 Aug 19:42:46 19:44:30 12° 57° (ENE) 19:46:28 437.445
AAUSAT CUBESAT 2 30 Aug 19:45:24 19:48:22 19° 64° (ENE) 19:51:24 437.432
UWE-3 30 Aug 19:52:49 19:54:25 12° 58° (ENE) 19:56:14 435.000/436.395/437.385
CUTE-I 30 Aug 19:53:33 19:56:06 13° 275° (W) 19:58:22 437.470
GOMX 1 30 Aug 20:01:03 20:05:34 77° 258° (WSW) 20:10:27 467.674
Cosmos 2491 30 Aug 20:05:05 20:13:48 66° 76° (ENE) 20:22:31 435.465 / 435.565
CUTE 1.7 + AOD 2 30 Aug 20:06:07 20:10:18 54° 73° (ENE) 20:14:31 437.475
YUBILEINY 30 Aug 20:17:57 20:25:13 32° 83° (E) 20:32:44 435.215
CANX-2 30 Aug 20:19:47 20:24:05 83° 76° (ENE) 20:28:24 2200.000
STRAND 1 30 Aug 20:19:58 20:25:05 73° 286° (WNW) 20:30:09 437.568
DELFI C3 30 Aug 20:20:19 20:22:17 14° 62° (ENE) 20:24:25 145.870
DOVE 4 30 Aug 20:21:13 20:25:50 79° 258° (WSW) 20:30:47 437.250
PRISM 30 Aug 20:28:50 20:32:56 69° 287° (WNW) 20:37:01 437.425
AIST 1 30 Aug 20:37:40 20:40:47 19° 273° (W) 20:43:47
Oscar 11 30 Aug 20:42:23 20:46:18 34° 69° (ENE) 20:50:17 145.826/435.025
SEEDS 30 Aug 20:43:46 20:48:02 76° 258° (WSW) 20:52:18 437.485
HUMSAT D 30 Aug 20:45:35 20:46:56 11° 59° (ENE) 20:48:29 437.325/437.525
O/OREOS (USA 219) 30 Aug 20:50:43 20:54:38 27° 308° (NW) 20:58:31 437.305
HO-68 30 Aug 20:54:36 21:01:38 56° 259° (W) 21:08:41 435.675
BRITE-PL 30 Aug 21:07:13 21:08:56 12° 277° (W) 21:10:25 437.365/2234.400
COMPASS 1 30 Aug 21:08:07 21:12:15 53° 261° (W) 21:16:23 437.405
CUBEBUG 2 30 Aug 21:15:47 21:20:26 81° 75° (ENE) 21:25:13 437.445
CINEMA 3 30 Aug 21:16:42 21:21:17 50° 262° (W) 21:26:04 145.822/145.860
AAUSAT CUBESAT 2 30 Aug 21:19:37 21:23:40 46° 261° (W) 21:27:44 437.432
RS-15 30 Aug 21:19:37 21:29:30 32° 0° (N) 21:39:49 29.354- 29.394
VELOX 1 30 Aug 21:20:50 21:21:50 11° 57° (ENE) 21:23:03 145.980
ZACube-1 30 Aug 21:21:52 21:26:19 57° 72° (ENE) 21:30:52 437.345
UWE-3 30 Aug 21:25:36 21:30:12 80° 75° (ENE) 21:34:55 435.000/436.395/437.385
FUNcube-1 30 Aug 21:27:50 21:32:19 64° 74° (ENE) 21:36:53 145.935
CUTE 1.7 + AOD 2 30 Aug 21:43:47 21:46:35 16° 271° (W) 21:49:15 437.475
DELFI C3 30 Aug 21:52:51 21:56:52 67° 258° (WSW) 22:00:56 145.870
BEESAT 3 30 Aug 21:53:09 21:54:55 13° 27° (NNE) 21:56:46 437.485
CANX-2 30 Aug 21:59:35 22:00:41 11° 275° (W) 22:01:31 2200.000
STRAND 1 30 Aug 22:01:21 22:03:29 12° 305° (NW) 22:05:24 437.568
Cosmos 2491 30 Aug 22:02:43 22:10:08 31° 277° (W) 22:17:22 435.465 / 435.565
BEESAT 2 30 Aug 22:03:17 22:05:02 12° 26° (NNE) 22:06:51 435.950
ESTCUBE 1 30 Aug 22:07:49 22:11:18 23° 64° (ENE) 22:14:51 437.505/2401.250
Cosmos 2504 30 Aug 22:08:04 22:13:39 21° 77° (ENE) 22:19:45 435.465 / 435.565
DX 1 30 Aug 22:08:05 22:12:11 44° 70° (ENE) 22:16:21 434.975-435.025
YUBILEINY 30 Aug 22:12:46 22:21:31 66° 284° (WNW) 22:30:19 435.215
HUMSAT D 30 Aug 22:17:41 22:22:01 87° 81° (E) 22:26:23 437.325/437.525
Oscar 11 30 Aug 22:18:50 22:22:34 26° 267° (W) 22:26:13 145.826/435.025
UKube-1 30 Aug 22:22:35 22:26:47 55° 72° (ENE) 22:31:02 .
AISAT 30 Aug 22:24:57 22:29:07 43° 69° (ENE) 22:33:20 437.250
CUBEBUG 1 30 Aug 22:29:58 22:33:41 29° 67° (ENE) 22:37:28 437.445
UNISAT 6 30 Aug 22:31:31 22:35:09 23° 92° (E) 22:38:48 437.425
SPROUT 30 Aug 22:33:04 22:34:23 11° 59° (ENE) 22:35:54 437.525
AUBIESAT-1 30 Aug 22:34:58 22:36:09 11° 91° (E) 22:37:29 437.475
M-CUBED/EXP-1 PRIME 30 Aug 22:38:08 22:40:27 15° 93° (E) 22:42:47 437.505
50 SAT 30 Aug 22:40:32 22:44:28 69° 75° (ENE) 22:48:26 437.505
QB50P2 30 Aug 22:41:24 22:41:57 10° 85° (E) 22:42:46 145.880/145.840
NANOSAT C BR1 30 Aug 22:43:28 22:43:58 10° 85° (E) 22:44:44 145.865
VELOX 1 30 Aug 22:53:17 22:57:41 79° 74° (ENE) 23:02:08 145.980
QB50P1 30 Aug 22:55:02 22:57:20 14° 88° (E) 22:59:49 145.935-145.965
CUBEBUG 2 30 Aug 22:55:33 22:57:50 13° 275° (W) 22:59:53 437.445
ZACube-1 30 Aug 22:59:57 23:03:05 18° 271° (W) 23:06:06 437.345
TIGRISAT 30 Aug 23:00:09 23:04:32 41° 97° (E) 23:08:48 435.000
UWE-3 30 Aug 23:05:11 23:07:25 13° 275° (W) 23:09:25 435.000/436.395/437.385
FUNcube-1 30 Aug 23:06:17 23:09:08 16° 272° (W) 23:11:51 145.935
ANTELSAT 30 Aug 23:16:35 23:21:11 63° 101° (E) 23:25:39 437.575/2403.000
BEESAT 3 30 Aug 23:29:46 23:33:46 53° 48° (NE) 23:37:41 437.485
CUSAT 1 30 Aug 23:30:56 23:33:56 21° 83° (E) 23:37:43 437.405
RS-15 30 Aug 23:34:23 23:45:31 48° 33° (NNE) 23:57:10 29.354- 29.394
TISAT 1 30 Aug 23:39:17 23:42:53 29° 67° (ENE) 23:46:35 437.305
BEESAT 2 30 Aug 23:40:00 23:44:01 52° 48° (NE) 23:47:57 435.950
ESTCUBE 1 30 Aug 23:43:38 23:47:56 44° 262° (W) 23:52:14 437.505/2401.250
DX 1 30 Aug 23:45:21 23:48:40 21° 268° (W) 23:51:54 434.975-435.025
DANDE 30 Aug 23:50:46 23:53:11 17° 83° (E) 23:56:09 436.750
POLYITAN 1 30 Aug 23:54:28 23:58:45 59° 101° (E) 00:03:00 437.675
Cosmos 2504 30 Aug 23:56:35 00:04:46 90° 79° (E) 00:13:26 435.465 / 435.565
BEESAT 30 Aug 23:57:30 23:58:51 11° 56° (NE) 00:00:25 436.000
POPSAT HIP 1 30 Aug 23:57:33 00:01:50 62° 101° (E) 00:06:06 437.405
HUMSAT D 30 Aug 23:57:37 23:58:27 10° 275° (W) 23:59:02 437.325/437.525
DUCHIFAT 1 30 Aug 23:59:06 00:03:23 62° 101° (E) 00:07:37 145.980
UKube-1 31 Aug 00:00:32 00:03:19 16° 270° (W) 00:05:58 .
AISAT 31 Aug 00:02:28 00:05:54 21° 268° (W) 00:09:17 437.250
SPROUT 31 Aug 00:05:31 00:09:49 88° 76° (ENE) 00:14:10 437.525
CUBEBUG 1 31 Aug 00:06:09 00:10:00 31° 265° (W) 00:13:51 437.445
AUBIESAT-1 31 Aug 00:07:27 00:11:32 68° 292° (WNW) 00:15:14 437.475
UNISAT 6 31 Aug 00:07:45 00:12:08 42° 291° (WNW) 00:16:23 437.425
AIST 2 31 Aug 00:08:08 00:11:46 27° 40° (NE) 00:15:23 435.215
M-CUBED/EXP-1 PRIME 31 Aug 00:11:39 00:15:43 52° 295° (WNW) 00:19:25 437.505
BUGSAT 1 31 Aug 00:12:00 00:16:12 54° 100° (E) 00:20:23 437.445
QB50P2 31 Aug 00:14:12 00:18:33 86° 285° (WNW) 00:22:51 145.880/145.840
YUBILEINY 31 Aug 00:15:09 00:20:35 17° 310° (NW) 00:25:37 435.215
NANOSAT C BR1 31 Aug 00:16:10 00:20:30 86° 285° (WNW) 00:24:47 145.865
SO-50 31 Aug 00:16:11 00:17:08 11° 108° (ESE) 00:18:21 436.795
50 SAT 31 Aug 00:18:05 00:19:30 11° 273° (W) 00:20:44 437.505
SWISSCUBE 31 Aug 00:21:01 00:24:19 19° 61° (ENE) 00:27:45 437.505
QB50P1 31 Aug 00:29:24 00:33:40 62° 287° (WNW) 00:37:54 145.935-145.965
VELOX 1 31 Aug 00:33:10 00:34:54 12° 274° (W) 00:36:23 145.980
TIGRISAT 31 Aug 00:37:17 00:41:04 25° 295° (WNW) 00:44:42 435.000
ANTELSAT 31 Aug 00:54:24 00:57:30 18° 299° (WNW) 01:00:26 437.575/2403.000
ITUPSAT 1 31 Aug 00:57:43 01:02:03 36° 67° (ENE) 01:06:25 437.325
BEESAT 3 31 Aug 01:08:29 01:11:20 18° 246° (WSW) 01:14:03 437.485
GONETS M04 31 Aug 01:09:07 01:12:58 14° 73° (ENE) 01:17:24
CUSAT 1 31 Aug 01:12:06 01:15:57 41° 291° (WNW) 01:21:03 437.405
TISAT 1 31 Aug 01:14:52 01:18:36 30° 265° (W) 01:22:20 437.305
BEESAT 2 31 Aug 01:18:46 01:21:43 19° 246° (WSW) 01:24:33 435.950
KKS-1 31 Aug 01:26:00 01:28:03 13° 59° (ENE) 01:30:18 437.445
BEESAT 31 Aug 01:31:10 01:35:56 73° 73° (ENE) 01:40:43 436.000
POLYITAN 1 31 Aug 01:31:23 01:34:14 17° 298° (WNW) 01:36:58 437.675
Oscar 19 31 Aug 01:31:33 01:35:59 28° 93° (E) 01:40:28 437.125/150
DANDE 31 Aug 01:32:20 01:35:44 38° 292° (WNW) 01:40:13 436.750
POPSAT HIP 1 31 Aug 01:34:32 01:37:17 16° 298° (WNW) 01:39:53 437.405
DUCHIFAT 1 31 Aug 01:36:03 01:38:45 16° 298° (WNW) 01:41:19 145.980
SPROUT 31 Aug 01:46:22 01:46:38 10° 275° (W) 01:46:39 437.525
AIST 2 31 Aug 01:46:29 01:50:30 44° 240° (WSW) 01:54:25 435.215
RS-15 31 Aug 01:47:12 01:58:57 73° 239° (WSW) 02:11:03 29.354- 29.394
BUGSAT 1 31 Aug 01:48:23 01:51:18 18° 297° (WNW) 01:54:06 437.445
Cosmos 2504 31 Aug 01:51:54 01:58:24 24° 303° (WNW) 02:04:51 435.465 / 435.565
SO-50 31 Aug 01:52:04 01:56:52 73° 125° (SE) 02:01:49 436.795
QB50P2 31 Aug 01:52:22 01:53:47 11° 302° (WNW) 01:55:00 145.880/145.840
NANOSAT C BR1 31 Aug 01:54:17 01:55:40 11° 302° (WNW) 01:56:52 145.865
SWISSCUBE 31 Aug 01:57:04 02:01:47 60° 259° (W) 02:06:31 437.505
Gurwin Techsat 1B 31 Aug 02:04:12 02:07:50 19° 89° (E) 02:11:37 435.225
PCSat 31 Aug 02:09:33 02:14:44 50° 117° (ESE) 02:20:00 145.827
ITAMSAT 1 31 Aug 02:28:09 02:32:17 24° 92° (E) 02:36:31 435.822/435.867
ITUPSAT 1 31 Aug 02:35:47 02:40:00 30° 266° (W) 02:44:10 437.325
Cosmos 2499 31 Aug 02:43:36 02:47:58 16° 74° (ENE) 02:52:55 435.465 / 435.565
STARS 31 Aug 02:43:59 02:48:08 42° 69° (ENE) 02:52:22 437.465
KKS-1 31 Aug 02:59:38 03:04:06 84° 257° (WSW) 03:08:37 437.445
GONETS M04 31 Aug 02:59:44 03:08:17 68° 94° (E) 03:16:57
JAS-2 31 Aug 03:00:38 03:06:58 34° 90° (E) 03:12:44 435.910
MOZHAYETS 4 31 Aug 03:05:46 03:09:04 20° 63° (ENE) 03:12:28
Oscar 19 31 Aug 03:10:36 03:15:31 43° 292° (WNW) 03:20:24 437.125/150
BEESAT 31 Aug 03:11:39 03:14:23 15° 272° (W) 03:16:54 436.000
SO-50 31 Aug 03:33:52 03:37:56 25° 326° (NW) 03:42:02 436.795
O/OREOS (USA 219) 31 Aug 03:38:51 03:42:15 20° 48° (NE) 03:45:44 437.305
Gurwin Techsat 1B 31 Aug 03:43:05 03:48:22 66° 288° (WNW) 03:53:38 435.225
PCSat 31 Aug 03:53:30 03:58:24 33° 317° (NW) 04:03:17 145.827
HORYU 2 31 Aug 03:59:46 04:03:16 23° 92° (E) 04:06:50 437.375
RS-15 31 Aug 04:01:35 04:09:41 20° 260° (W) 04:17:11 29.354- 29.394
ITAMSAT 1 31 Aug 04:07:05 04:12:06 50° 291° (WNW) 04:17:05 435.822/435.867
AO-7 31 Aug 04:17:08 04:24:57 44° 98° (E) 04:32:47 29.400- 29.500
STARS 31 Aug 04:21:18 04:24:47 22° 268° (W) 04:28:13 437.465
VERMONT LUNAR 31 Aug 04:23:43 04:25:05 13° 160° (SSE) 04:26:30 437.305
Cosmos 2499 31 Aug 04:31:13 04:39:37 70° 94° (E) 04:48:27 435.465 / 435.565
MOZHAYETS 4 31 Aug 04:41:25 04:45:57 54° 260° (W) 04:50:29
JAS-2 31 Aug 04:45:22 04:52:24 52° 293° (WNW) 04:58:35 435.910
CUBESAT XI-V 31 Aug 04:56:24 05:00:03 24° 65° (ENE) 05:03:46 437.345
GONETS M04 31 Aug 04:58:22 05:05:58 31° 297° (WNW) 05:13:26
O/OREOS (USA 219) 31 Aug 05:17:33 05:22:07 61° 249° (WSW) 05:26:38 437.305
SO-50 31 Aug 05:18:44 05:20:13 11° 349° (N) 05:21:40 436.795
Gurwin Techsat 1B 31 Aug 05:25:29 05:27:28 12° 306° (NW) 05:29:12 435.225
HORYU 2 31 Aug 05:35:52 05:40:06 42° 291° (WNW) 05:44:16 437.375
Cubesat XI-IV 31 Aug 05:40:56 05:42:43 12° 84° (E) 05:44:49 437.490
PCSat 31 Aug 05:41:42 05:43:37 12° 341° (NNW) 05:45:24 145.827
PRISM 31 Aug 05:48:16 05:50:32 15° 61° (ENE) 05:52:56 437.425
VERMONT LUNAR 31 Aug 05:58:32 06:00:56 22° 176° (S) 06:03:21 437.305
STRAND 1 31 Aug 06:00:33 06:05:01 32° 65° (ENE) 06:09:34 437.568
AO-7 31 Aug 06:10:00 06:17:56 51° 299° (WNW) 06:25:47 29.400- 29.500
YUBILEINY 31 Aug 06:23:26 06:29:14 19° 53° (NE) 06:35:21 435.215
CUTE-I 31 Aug 06:24:09 06:28:43 29° 94° (E) 06:33:21 437.470
PHONESAT 2.4 31 Aug 06:25:22 06:27:07 14° 158° (SSE) 06:28:54 2401.200-2431.200
Cosmos 2499 31 Aug 06:26:05 06:33:38 32° 298° (WNW) 06:41:17 435.465 / 435.565
JAS-2 31 Aug 06:32:38 06:35:49 13° 315° (NW) 06:38:35 435.910
CUBESAT XI-V 31 Aug 06:32:54 06:37:16 43° 262° (W) 06:41:40 437.345
SO-50 31 Aug 07:01:03 07:02:57 12° 14° (NNE) 07:04:54 436.795
Cubesat XI-IV 31 Aug 07:18:26 07:23:47 82° 103° (ESE) 07:29:08 437.490
Cosmos 2491 31 Aug 07:19:06 07:22:53 14° 73° (ENE) 07:27:15 435.465 / 435.565
PRISM 31 Aug 07:21:28 07:25:32 62° 258° (WSW) 07:29:37 437.425
BRITE-PL 31 Aug 07:26:24 07:30:49 25° 91° (E) 07:35:29 437.365/2234.400
AIST 1 31 Aug 07:32:39 07:35:52 22° 88° (E) 07:39:12
VERMONT LUNAR 31 Aug 07:34:42 07:36:51 18° 192° (SSW) 07:39:00 437.305
STRAND 1 31 Aug 07:39:27 07:44:11 37° 263° (W) 07:48:54 437.568
GOMX 1 31 Aug 07:59:33 08:04:14 30° 92° (E) 08:09:04 467.674
PHONESAT 2.4 31 Aug 08:01:29 08:04:22 25° 174° (S) 08:07:15 2401.200-2431.200
CUTE-I 31 Aug 08:03:57 08:08:59 44° 292° (WNW) 08:13:59 437.470
CANX-2 31 Aug 08:04:08 08:05:33 12° 86° (E) 08:07:12 2200.000
AO-7 31 Aug 08:04:34 08:08:57 15° 322° (NW) 08:13:01 29.400- 29.500
DOVE 4 31 Aug 08:17:20 08:21:46 27° 91° (E) 08:26:15 437.250
YUBILEINY 31 Aug 08:19:05 08:27:58 75° 78° (ENE) 08:36:47 435.215
HO-68 31 Aug 08:19:20 08:25:02 26° 90° (E) 08:30:55 435.675
SEEDS 31 Aug 08:26:22 08:28:38 15° 88° (E) 08:31:03 437.485
ISS 31 Aug 08:27:39 08:28:04 10° 133° (SE) 08:28:35 145.825
SO-50 31 Aug 08:40:45 08:45:07 30° 38° (NE) 08:49:26 436.795
ANTELSAT 31 Aug 08:44:54 08:46:35 12° 57° (ENE) 08:48:28 437.575/2403.000
COMPASS 1 31 Aug 08:49:03 08:52:03 20° 91° (E) 08:55:09 437.405
Cubesat XI-IV 31 Aug 08:59:49 09:03:18 17° 302° (WNW) 09:06:37 437.490
AAUSAT CUBESAT 2 31 Aug 08:59:49 09:03:00 21° 92° (E) 09:06:14 437.432
BRITE-PL 31 Aug 09:04:19 09:09:37 55° 289° (WNW) 09:15:07 437.365/2234.400
CUBEBUG 2 31 Aug 09:05:25 09:08:01 15° 86° (E) 09:10:46 437.445
CINEMA 3 31 Aug 09:08:34 09:13:09 35° 94° (E) 09:17:39 145.822/145.860
AIST 1 31 Aug 09:09:23 09:13:20 36° 286° (WNW) 09:17:17
Cosmos 2491 31 Aug 09:09:38 09:18:12 68° 94° (E) 09:26:51 435.465 / 435.565
PCSat 31 Aug 09:11:32 09:15:24 20° 33° (NNE) 09:19:22 145.827
UWE-3 31 Aug 09:14:12 09:16:31 14° 86° (E) 09:19:00 435.000/436.395/437.385
FUNcube-1 31 Aug 09:16:39 09:16:50 10° 83° (E) 09:17:17 145.935
AUBIESAT-1 31 Aug 09:22:37 09:26:46 32° 62° (ENE) 09:30:53 437.475
CUTE 1.7 + AOD 2 31 Aug 09:23:55 09:28:10 72° 102° (ESE) 09:32:22 437.475
M-CUBED/EXP-1 PRIME 31 Aug 09:26:51 09:31:18 39° 63° (ENE) 09:35:42 437.505
DELFI C3 31 Aug 09:30:16 09:32:05 13° 88° (E) 09:34:05 145.870
UNISAT 6 31 Aug 09:33:00 09:37:05 31° 67° (ENE) 09:41:15 437.425
QB50P2 31 Aug 09:36:40 09:38:37 13° 60° (ENE) 09:40:45 145.880/145.840
GOMX 1 31 Aug 09:37:21 09:42:30 45° 290° (WNW) 09:47:42 467.674
CANX-2 31 Aug 09:37:50 09:42:05 74° 286° (WNW) 09:46:17 2200.000
NANOSAT C BR1 31 Aug 09:38:20 09:40:13 13° 60° (ENE) 09:42:18 145.865
PHONESAT 2.4 31 Aug 09:38:58 09:41:45 23° 190° (S) 09:44:29 2401.200-2431.200
Cosmos 2504 31 Aug 09:39:54 09:47:45 39° 67° (ENE) 09:55:20 435.465 / 435.565
QB50P1 31 Aug 09:50:42 09:53:27 17° 62° (ENE) 09:56:20 145.935-145.965
DOVE 4 31 Aug 09:54:37 09:59:43 48° 290° (WNW) 10:04:47 437.250
CUSAT 1 31 Aug 10:00:20 10:07:06 37° 67° (ENE) 10:14:37 437.405
SEEDS 31 Aug 10:00:43 10:04:52 58° 287° (WNW) 10:08:58 437.485
ISS 31 Aug 10:00:46 10:03:58 61° 149° (SSE) 10:07:11 145.825
HUMSAT D 31 Aug 10:00:49 10:02:14 12° 86° (E) 10:03:52 437.325/437.525
TIGRISAT 31 Aug 10:01:17 10:05:51 53° 71° (ENE) 10:10:28 435.000
Oscar 11 31 Aug 10:02:18 10:06:27 44° 98° (E) 10:10:35 145.826/435.025
HO-68 31 Aug 10:06:17 10:13:29 71° 291° (WNW) 10:20:37 435.675
YUBILEINY 31 Aug 10:16:57 10:24:03 27° 279° (W) 10:30:50 435.215
ANTELSAT 31 Aug 10:17:56 10:22:38 79° 73° (ENE) 10:27:22 437.575/2403.000
SO-50 31 Aug 10:21:05 10:25:58 57° 238° (WSW) 10:30:43 436.795
DANDE 31 Aug 10:22:51 10:29:24 37° 68° (ENE) 10:37:04 436.750
COMPASS 1 31 Aug 10:23:59 10:27:56 42° 289° (WNW) 10:31:50 437.405
AAUSAT CUBESAT 2 31 Aug 10:34:53 10:38:45 38° 290° (WNW) 10:42:33 437.432
CUBEBUG 2 31 Aug 10:40:34 10:45:17 69° 286° (WNW) 10:49:52 437.445
VELOX 1 31 Aug 10:42:34 10:44:17 12° 87° (E) 10:46:14 145.980
ZACube-1 31 Aug 10:43:40 10:48:15 80° 103° (ESE) 10:52:41 437.345
CINEMA 3 31 Aug 10:45:46 10:50:18 34° 293° (WNW) 10:54:42 145.822/145.860
BRITE-PL 31 Aug 10:46:23 10:47:11 10° 305° (NW) 10:47:41 437.365/2234.400
UWE-3 31 Aug 10:49:00 10:53:39 72° 286° (WNW) 10:58:08 435.000/436.395/437.385
FUNcube-1 31 Aug 10:49:24 10:53:58 88° 103° (ESE) 10:58:23 145.935
POLYITAN 1 31 Aug 10:50:02 10:54:16 65° 73° (ENE) 10:58:33 437.675
POPSAT HIP 1 31 Aug 10:52:55 10:57:08 68° 75° (ENE) 11:01:25 437.405
DUCHIFAT 1 31 Aug 10:54:00 10:58:12 67° 74° (ENE) 11:02:28 145.980
PCSat 31 Aug 10:54:18 10:59:45 78° 54° (NE) 11:05:12 145.827
AUBIESAT-1 31 Aug 10:56:57 11:01:22 37° 258° (WSW) 11:05:41 437.475
CUTE 1.7 + AOD 2 31 Aug 11:01:20 11:03:34 14° 299° (WNW) 11:05:39 437.475
M-CUBED/EXP-1 PRIME 31 Aug 11:01:52 11:06:07 30° 260° (W) 11:10:14 437.505
DELFI C3 31 Aug 11:03:39 11:07:36 59° 287° (WNW) 11:11:30 145.870
BUGSAT 1 31 Aug 11:04:46 11:08:45 55° 72° (ENE) 11:12:49 437.445
Cosmos 2491 31 Aug 11:08:16 11:15:53 32° 297° (WNW) 11:23:22 435.465 / 435.565
UNISAT 6 31 Aug 11:09:29 11:13:47 34° 264° (W) 11:18:06 437.425
QB50P2 31 Aug 11:09:42 11:13:57 78° 257° (WSW) 11:18:17 145.880/145.840
NANOSAT C BR1 31 Aug 11:11:15 11:15:30 79° 257° (WSW) 11:19:47 145.865
QB50P1 31 Aug 11:24:45 11:28:56 56° 260° (W) 11:33:09 145.935-145.965
DX 1 31 Aug 11:29:09 11:33:29 53° 100° (E) 11:37:47 434.975-435.025
Cosmos 2504 31 Aug 11:32:04 11:40:21 54° 270° (W) 11:48:07 435.465 / 435.565
ESTCUBE 1 31 Aug 11:33:11 11:37:08 30° 95° (E) 11:41:09 437.505/2401.250
HUMSAT D 31 Aug 11:34:19 11:38:35 75° 285° (WNW) 11:42:46 437.325/437.525
ISS 31 Aug 11:37:24 11:40:31 41° 349° (NNW) 11:43:38 145.825
Oscar 11 31 Aug 11:39:04 11:42:22 21° 296° (WNW) 11:45:34 145.826/435.025
TIGRISAT 31 Aug 11:39:28 11:42:56 20° 270° (W) 11:46:19 435.000
CUSAT 1 31 Aug 11:42:34 11:50:01 61° 264° (W) 11:58:05 437.405
UKube-1 31 Aug 11:42:47 11:47:08 67° 102° (ESE) 11:51:27 .
50 SAT 31 Aug 11:46:55 11:50:49 67° 101° (ESE) 11:54:38 437.505
AISAT 31 Aug 11:48:34 11:53:00 57° 101° (E) 11:57:25 437.250
SPROUT 31 Aug 11:50:49 11:52:42 13° 87° (E) 11:54:46 437.525
CUBEBUG 1 31 Aug 11:51:16 11:55:23 38° 97° (E) 11:59:32 437.445
HO-68 31 Aug 11:55:30 12:00:07 18° 311° (NW) 12:04:31 435.675
ANTELSAT 31 Aug 11:57:42 12:00:04 13° 274° (W) 12:02:12 437.575/2403.000
DANDE 31 Aug 12:05:40 12:12:50 59° 264° (W) 12:21:03 436.750
VELOX 1 31 Aug 12:16:59 12:21:28 78° 286° (WNW) 12:25:56 145.980
CUBEBUG 2 31 Aug 12:20:07 12:21:07 10° 304° (NW) 12:21:52 437.445
ZACube-1 31 Aug 12:21:35 12:24:00 14° 300° (WNW) 12:26:15 437.345
FUNcube-1 31 Aug 12:27:32 12:29:38 13° 301° (WNW) 12:31:32 145.935
POLYITAN 1 31 Aug 12:28:23 12:30:40 14° 272° (W) 12:32:48 437.675
UWE-3 31 Aug 12:28:23 12:29:21 10° 304° (WNW) 12:30:06 435.000/436.395/437.385
POPSAT HIP 1 31 Aug 12:31:26 12:33:33 13° 273° (W) 12:35:29 437.405
DUCHIFAT 1 31 Aug 12:32:25 12:34:32 13° 273° (W) 12:36:28 145.980
PCSat 31 Aug 12:38:57 12:42:37 18° 253° (WSW) 12:46:05 145.827
BUGSAT 1 31 Aug 12:42:12 12:44:38 15° 271° (W) 12:46:56 437.445
Oscar 19 31 Aug 12:51:09 12:56:10 55° 71° (ENE) 13:01:16 437.125/150
TISAT 1 31 Aug 12:55:43 12:59:36 33° 96° (E) 13:03:30 437.305
GONETS M04 31 Aug 13:06:09 13:14:16 40° 67° (ENE) 13:22:30
DX 1 31 Aug 13:06:15 13:09:23 19° 298° (WNW) 13:12:24 434.975-435.025
ESTCUBE 1 31 Aug 13:10:00 13:14:01 32° 293° (WNW) 13:17:58 437.505/2401.250
ISS 31 Aug 13:14:18 13:17:23 38° 9° (N) 13:20:28 145.825
JAS-2 31 Aug 13:15:08 13:21:15 27° 57° (ENE) 13:27:33 435.910
UKube-1 31 Aug 13:20:10 13:22:48 16° 299° (WNW) 13:25:18 .
50 SAT 31 Aug 13:23:02 13:24:51 13° 299° (WNW) 13:26:30 437.505
